Weather History for Luverne, MN

Change the Weather History Date:

Thursday, May 23, 2013

  Actual Average (KFSD) Record (KFSD)
Temperature  
Mean Temperature 56 °F 60 °F  
Max Temperature 68 °F 72 °F 94 °F (1950)
Min Temperature 44 °F 49 °F 33 °F (1893)
Degree Days  
Heating Degree Days 9 6  
Month to date heating degree days 208  
Since 1 July heating degree days 7615  
Cooling Degree Days 0 1  
Month to date cooling degree days 19  
Year to date cooling degree days 24  
Growing Degree Days 6 (Base 50)    
Moisture  
Dew Point 39 °F    
Average Humidity 57    
Maximum Humidity 87    
Minimum Humidity 23    
Precipitation  
Precipitation 0.00 in 0.11 in 3.96 in (1936)
Month to date precipitation 2.47  
Year to date precipitation 8.40  
Snow  
Snow 0.00 in 0.00 in - ()
Month to date snowfall 0.4  
Since 1 July snowfall 44.9  
Snow Depth -    
Sea Level Pressure  
Sea Level Pressure 30.20 in    
Wind  
Wind Speed 10 mph (NE)    
Max Wind Speed 17 mph    
Max Gust Speed 23 mph    
Visibility 10 miles    
Events      
T = Trace of Precipitation, MM = Missing Value Source: NWS Daily Summary

Daily Weather History Graph

Daily Weather History Graph

Search for Another Location

Airport:

Trip Planner

Search our weather history database for the weather conditions in past years. The results will help you decide how hot, cold, wet, or windy it might be!

Date:

Astronomy

May. 23, 2013 Rise Set
Actual Time 5:52 AM CDT 8:51 PM CDT
Civil Twilight 5:18 AM CDT 9:25 PM CDT
Nautical Twilight 4:34 AM CDT 10:09 PM CDT
Astronomical Twilight 3:43 AM CDT 11:01 PM CDT
Moon 7:23 PM CDT (5/23) 4:41 AM CDT (5/23)
Length of Visible Light 16h 07m
Length of Day
14h 59m
Waxing Gibbous, 97% of the Moon is Illuminated
May 23
Waxing Gibbous
May 24
Full
May 31
Last Quarter
Jun 8
New
Jun 16
First Quarter

Hourly Weather History & Observations

Time (CDT) Temp. Windchill Dew Point Humidity Pressure Visibility Wind Dir Wind Speed Gust Speed Precip Events Conditions
12:13 AM 50.0 °F - 44.6 °F 82% 30.01 in 10.0 mi NNE 10.4 mph 17.3 mph N/A   Clear
12:34 AM 50.0 °F - 44.6 °F 82% 30.02 in 10.0 mi NNE 11.5 mph 17.3 mph N/A   Clear
12:54 AM 50.0 °F - 44.6 °F 82% 30.03 in 10.0 mi NNE 12.7 mph 16.1 mph N/A   Clear
1:13 AM 50.0 °F - 42.8 °F 76% 30.04 in 10.0 mi NNE 9.2 mph 16.1 mph N/A   Clear
1:34 AM 50.0 °F - 42.8 °F 76% 30.05 in 10.0 mi NNE 8.1 mph - N/A   Clear
1:53 AM 50.0 °F - 42.8 °F 76% 30.05 in 10.0 mi NNE 8.1 mph - N/A   Clear
2:14 AM 50.0 °F - 42.8 °F 76% 30.05 in 10.0 mi NNE 6.9 mph - N/A   Clear
2:34 AM 48.2 °F - 42.8 °F 82% 30.06 in 10.0 mi NNE 6.9 mph - N/A   Clear
2:53 AM 48.2 °F - 42.8 °F 82% 30.07 in 10.0 mi NNE 8.1 mph - N/A   Clear
3:14 AM 48.2 °F - 42.8 °F 82% 30.08 in 10.0 mi NNE 6.9 mph - N/A   Clear
3:34 AM 48.2 °F - 41.0 °F 76% 30.09 in 10.0 mi NNE 8.1 mph - N/A   Clear
3:53 AM 46.4 °F 42.4 °F 41.0 °F 81% 30.10 in 10.0 mi North 8.1 mph - N/A   Clear
4:14 AM 46.4 °F 42.4 °F 41.0 °F 81% 30.11 in 10.0 mi NNE 8.1 mph - N/A   Clear
4:34 AM 46.4 °F 42.4 °F 41.0 °F 81% 30.12 in 10.0 mi NNE 8.1 mph - N/A   Clear
4:53 AM 46.4 °F 42.9 °F 41.0 °F 81% 30.14 in 10.0 mi North 6.9 mph - N/A   Clear
5:14 AM 44.6 °F 40.2 °F 41.0 °F 87% 30.15 in 10.0 mi North 8.1 mph - N/A   Clear
5:32 AM 44.6 °F 39.7 °F 41.0 °F 87% 30.16 in 10.0 mi North 9.2 mph - N/A   Clear
5:54 AM 44.6 °F 40.2 °F 41.0 °F 87% 30.16 in 10.0 mi North 8.1 mph - N/A   Clear
6:14 AM 44.6 °F 39.7 °F 41.0 °F 87% 30.17 in 10.0 mi NNE 9.2 mph - N/A   Clear
6:34 AM 46.4 °F 42.4 °F 41.0 °F 81% 30.17 in 10.0 mi NNE 8.1 mph - N/A   Clear
6:53 AM 46.4 °F 42.4 °F 41.0 °F 81% 30.19 in 10.0 mi NNE 8.1 mph 16.1 mph N/A   Clear
7:08 AM 46.4 °F 41.9 °F 41.0 °F 81% 30.19 in 10.0 mi NNE 9.2 mph - N/A   Clear
7:34 AM 48.2 °F - 41.0 °F 76% 30.20 in 10.0 mi NNE 8.1 mph - N/A   Clear
7:53 AM 50.0 °F - 41.0 °F 71% 30.21 in 10.0 mi NNE 9.2 mph - N/A   Clear
8:14 AM 50.0 °F - 42.8 °F 76% 30.21 in 10.0 mi NE 6.9 mph - N/A   Clear
8:33 AM 51.8 °F - 42.8 °F 71% 30.22 in 10.0 mi NNE 8.1 mph - N/A   Clear
8:54 AM 53.6 °F - 42.8 °F 67% 30.23 in 10.0 mi NE 11.5 mph 17.3 mph N/A   Clear
9:13 AM 53.6 °F - 42.8 °F 67% 30.24 in 10.0 mi NE 11.5 mph 16.1 mph N/A   Clear
9:34 AM 55.4 °F - 42.8 °F 63% 30.24 in 10.0 mi NE 11.5 mph - N/A   Clear
9:54 AM 55.4 °F - 42.8 °F 63% 30.25 in 10.0 mi NE 11.5 mph 16.1 mph N/A   Clear
10:13 AM 57.2 °F - 41.0 °F 55% 30.26 in 10.0 mi NE 12.7 mph 17.3 mph N/A   Clear
10:33 AM 59.0 °F - 41.0 °F 51% 30.26 in 10.0 mi NE 12.7 mph 18.4 mph N/A   Clear
10:54 AM 59.0 °F - 41.0 °F 51% 30.26 in 10.0 mi NE 12.7 mph 20.7 mph N/A   Clear
11:13 AM 59.0 °F - 42.8 °F 55% 30.26 in 10.0 mi NE 17.3 mph 20.7 mph N/A   Clear
11:34 AM 60.8 °F - 42.8 °F 52% 30.26 in 10.0 mi NE 15.0 mph 21.9 mph N/A   Clear
11:53 AM 60.8 °F - 42.8 °F 52% 30.26 in 10.0 mi NE 15.0 mph 18.4 mph N/A   Clear
12:14 PM 60.8 °F - 42.8 °F 52% 30.27 in 10.0 mi ENE 12.7 mph 19.6 mph N/A   Clear
12:33 PM 62.6 °F - 44.6 °F 52% 30.26 in 10.0 mi NE 11.5 mph 20.7 mph N/A   Clear
12:54 PM 62.6 °F - 42.8 °F 48% 30.26 in 10.0 mi NE 15.0 mph 23.0 mph N/A   Clear
1:14 PM 62.6 °F - 44.6 °F 52% 30.26 in 10.0 mi NE 13.8 mph 23.0 mph N/A   Clear
1:34 PM 62.6 °F - 42.8 °F 48% 30.26 in 10.0 mi NE 15.0 mph 21.9 mph N/A   Scattered Clouds
1:53 PM 62.6 °F - 42.8 °F 48% 30.26 in 10.0 mi ENE 12.7 mph 20.7 mph N/A   Clear
2:13 PM 64.4 °F - 41.0 °F 42% 30.26 in 10.0 mi NNE 17.3 mph - N/A   Clear
2:34 PM 64.4 °F - 42.8 °F 45% 30.25 in 10.0 mi NE 13.8 mph 21.9 mph N/A   Clear
2:54 PM 64.4 °F - 41.0 °F 42% 30.24 in 10.0 mi NE 13.8 mph 23.0 mph N/A   Clear
3:14 PM 64.4 °F - 41.0 °F 42% 30.24 in 10.0 mi NE 16.1 mph 21.9 mph N/A   Clear
3:33 PM 64.4 °F - 37.4 °F 37% 30.24 in 10.0 mi ENE 16.1 mph 19.6 mph N/A   Clear
3:53 PM 64.4 °F - 35.6 °F 34% 30.24 in 10.0 mi NE 11.5 mph 21.9 mph N/A   Clear
4:13 PM 68.0 °F - 33.8 °F 28% 30.24 in 10.0 mi ENE 12.7 mph 23.0 mph N/A   Clear
4:34 PM 68.0 °F - 32.0 °F 26% 30.24 in 10.0 mi ENE 13.8 mph 18.4 mph N/A   Clear
4:54 PM 68.0 °F - 30.2 °F 24% 30.24 in 10.0 mi NE 12.7 mph 18.4 mph N/A   Clear
5:13 PM 68.0 °F - 28.4 °F 23% 30.24 in 10.0 mi East 13.8 mph 18.4 mph N/A   Clear
5:34 PM 68.0 °F - 28.4 °F 23% 30.24 in 10.0 mi East 12.7 mph 20.7 mph N/A   Clear
5:54 PM 68.0 °F - 28.4 °F 23% 30.24 in 10.0 mi East 10.4 mph - N/A   Clear
6:13 PM 68.0 °F - 28.4 °F 23% 30.24 in 10.0 mi East 8.1 mph 16.1 mph N/A   Clear
6:34 PM 66.2 °F - 28.4 °F 24% 30.24 in 10.0 mi East 12.7 mph 18.4 mph N/A   Clear
6:54 PM 66.2 °F - 28.4 °F 24% 30.24 in 10.0 mi East 15.0 mph 18.4 mph N/A   Clear
7:13 PM 64.4 °F - 30.2 °F 28% 30.24 in 10.0 mi East 13.8 mph 18.4 mph N/A   Clear
7:34 PM 64.4 °F - 28.4 °F 26% 30.24 in 10.0 mi ESE 11.5 mph - N/A   Clear
7:54 PM 62.6 °F - 30.2 °F 30% 30.24 in 10.0 mi East 12.7 mph 16.1 mph N/A   Clear
8:13 PM 62.6 °F - 32.0 °F 32% 30.25 in 10.0 mi East 11.5 mph - N/A   Clear
8:34 PM 60.8 °F - 32.0 °F 34% 30.25 in 10.0 mi East 8.1 mph - N/A   Clear
8:54 PM 59.0 °F - 32.0 °F 36% 30.25 in 10.0 mi East 6.9 mph - N/A   Clear
9:13 PM 55.4 °F - 33.8 °F 44% 30.25 in 10.0 mi East 5.8 mph - N/A   Clear
9:34 PM 55.4 °F - 33.8 °F 44% 30.26 in 10.0 mi East 6.9 mph - N/A   Clear
9:54 PM 53.6 °F - 33.8 °F 47% 30.26 in 10.0 mi East 8.1 mph - N/A   Clear
10:13 PM 53.6 °F - 33.8 °F 47% 30.28 in 10.0 mi East 8.1 mph - N/A   Clear
10:34 PM 51.8 °F - 35.6 °F 54% 30.29 in 10.0 mi East 5.8 mph - N/A   Clear
10:53 PM 51.8 °F - 35.6 °F 54% 30.29 in 10.0 mi East 6.9 mph - N/A   Clear
11:14 PM 50.0 °F - 35.6 °F 58% 30.29 in 10.0 mi East 5.8 mph - N/A   Clear
11:34 PM 50.0 °F - 35.6 °F 58% 30.29 in 10.0 mi East 6.9 mph - N/A   Clear
11:53 PM 48.2 °F - 35.6 °F 62% 30.29 in 10.0 mi East 4.6 mph - N/A   Clear